CZ-6A DEB, 61309

Orbit data source: Space-Track

CZ-6A DEB, 61309 is space debris in LEO originally from a launch on Tue, 06 Aug 2024 UTC launched from the Taiyaun Space Center, China (TSC). Debris objects in space refer to the collection of defunct objects orbiting the Earth. Examples of debris include non-operational satellites, rocket bodies, and fragments generated from explosions, collisions, or faulty payload assembly.

Loading next visibility...
Identifier
61309, 2024-140TW
Orbit
LEO
Country
Flag of CNCN / PRC
Related business
Manufacturer
SAST
Mission
Spacecraft
Bus & Motor
Unknown
Mass
Unknown
Launch date (UTC)
2024-08-06 (2 years ago)
Launch vehicle
Unknown
Launch site
Taiyaun Space Center, China (TSC)
Object type
Payload
Rocket body
Debris
Shape & HBR
Unknown shape, 0.1 m
Radar Cross Section
Medium (>0.1 m² and <1 m²)

Expand to show TLE details & history
Last TLE update: 15 hours ago

TLE from 15 hours ago
0 CZ-6A DEB
1 61309U 24140TW  26171.22145507  .00001599  00000-0  60890-3 0  9993
2 61309  88.9754 271.4123 0025817 128.4479 231.9039 14.30281453 94348
Epoch: 2026-06-20T05:18Z
TLE epoch observation values (Epoch: 2026-06-20T05:18:53.718Z)
Latitude
-0.00004°
Longitude
-76.75071°
Altitude
805.309 km
Speed
7.445 km/s
True Right ascension
18h 05m 38s
True Declination
0° 00' 00"
Sunlit
Object was in full shadow at epoch
Visualization orbit readout
Latitude
Unknown
Longitude
Unknown
Altitude
Unknown
Speed
Unknown
Apparent Right ascension
Unknown
Apparent Declination
Unknown
Sunlit
N/A
Visualization observer readout
Local Sidereal Time
07:24:14
Azimuth
Unknown
Elevation
Unknown
Doppler factor
Unknown
Orbital elements
Apogee altitude
806.227 km
Perigee altitude
769.227 km
Semi-major axis
7,165.864 km
Eccentricity
0.00258
Inclination
88.9754°
RAAN
271.4123°
Arg. of periapsis
128.4479°
True anomaly
231.67154°
Mean anomaly
231.9039°
Eccentric anomaly
231.78768°
Mean motion
3.578 °/min
Orbital period
100.61 mins
BSTAR
0.0006089
Loading maneuver chart data...
Computing Atmospheric mass density...
Loading historical data...
Loading historical data...
Loading historical data...
Loading historical data...
Loading historical data...
Loading historical data...
Loading historical data...

Documentation

Showing up to 5 results
|